TimeCDT,TemperatureF,Dew PointF,Humidity,Sea Level PressureIn,VisibilityMPH,Wind Direction,Wind SpeedMPH,Gust SpeedMPH,PrecipitationIn,Events,Conditions,WindDirDegrees,DateUTC
12:53 AM,66.9,61.0,81,29.95,10.0,Variable,5.8,-,N/A,,Clear,0,2013-07-26 05:53:00
1:53 AM,68.0,62.1,81,29.94,10.0,North,-9999.0,-,N/A,,Clear,0,2013-07-26 06:53:00
2:53 AM,66.9,63.0,87,29.93,10.0,Variable,4.6,-,N/A,,Clear,0,2013-07-26 07:53:00
3:53 AM,66.0,62.1,87,29.93,10.0,South,4.6,-,N/A,,Clear,180,2013-07-26 08:53:00
4:53 AM,66.0,63.0,90,29.94,10.0,South,3.5,-,N/A,,Clear,180,2013-07-26 09:53:00
5:53 AM,66.0,63.0,90,29.95,10.0,South,5.8,-,N/A,,Scattered Clouds,190,2013-07-26 10:53:00
6:53 AM,68.0,63.0,84,29.95,10.0,South,9.2,-,N/A,,Mostly Cloudy,180,2013-07-26 11:53:00
7:53 AM,68.0,62.1,81,29.94,10.0,South,9.2,-,N/A,,Mostly Cloudy,190,2013-07-26 12:53:00
8:04 AM,68.0,62.6,83,29.95,10.0,South,8.1,-,N/A,,Mostly Cloudy,180,2013-07-26 13:04:00
8:53 AM,71.1,62.1,73,29.94,10.0,SSW,8.1,-,N/A,,Overcast,200,2013-07-26 13:53:00
9:21 AM,68.0,62.6,83,29.94,2.0,SW,4.6,-,0.00,Rain,Rain,220,2013-07-26 14:21:00
9:26 AM,68.0,64.4,88,29.94,2.0,SSW,5.8,-,0.03,Rain,Rain,200,2013-07-26 14:26:00
9:41 AM,66.2,64.4,94,29.94,2.0,Calm,Calm,-,0.05,Rain,Light Rain,0,2013-07-26 14:41:00
9:53 AM,66.0,64.0,93,29.93,2.0,South,6.9,-,0.07,Rain,Light Rain,190,2013-07-26 14:53:00
9:59 AM,66.2,64.4,94,29.93,6.0,SSW,3.5,-,0.00,Rain,Light Rain,210,2013-07-26 14:59:00
10:53 AM,66.9,64.0,90,29.92,10.0,Variable,5.8,-,0.01,,Overcast,0,2013-07-26 15:53:00
11:22 AM,66.2,64.4,94,29.92,5.0,Variable,4.6,-,0.00,,Overcast,0,2013-07-26 16:22:00
11:53 AM,69.1,66.0,90,29.90,10.0,SW,6.9,-,0.00,,Overcast,220,2013-07-26 16:53:00
12:33 PM,69.8,64.4,83,29.90,9.0,SW,4.6,-,0.00,,Overcast,230,2013-07-26 17:33:00
12:53 PM,70.0,64.9,84,29.89,10.0,SSW,5.8,-,0.00,,Overcast,210,2013-07-26 17:53:00
1:00 PM,71.6,66.2,83,29.89,10.0,SSW,8.1,-,N/A,,Overcast,200,2013-07-26 18:00:00
1:53 PM,75.0,66.0,73,29.86,10.0,Variable,6.9,-,N/A,,Mostly Cloudy,0,2013-07-26 18:53:00
2:49 PM,73.4,64.4,73,29.85,10.0,SSW,4.6,-,N/A,Thunderstorm,Thunderstorm,210,2013-07-26 19:49:00
2:53 PM,73.9,64.9,73,29.84,10.0,Calm,Calm,-,N/A,Thunderstorm,Thunderstorm,0,2013-07-26 19:53:00
3:04 PM,71.6,66.2,83,29.86,1.5,West,6.9,-,0.04,Rain-Thunderstorm,Heavy Thunderstorms and Rain,260,2013-07-26 20:04:00
3:12 PM,69.8,59.0,68,29.88,0.8,West,10.4,19.6,0.20,Rain-Thunderstorm,Heavy Thunderstorms and Rain,270,2013-07-26 20:12:00
3:16 PM,68.0,59.0,73,29.87,2.0,Variable,4.6,19.6,0.21,Rain-Thunderstorm,Light Thunderstorms and Rain,0,2013-07-26 20:16:00
3:24 PM,68.0,62.6,83,29.86,9.0,Calm,Calm,-,0.21,Rain-Thunderstorm,Light Thunderstorms and Rain,0,2013-07-26 20:24:00
3:34 PM,71.6,66.2,83,29.85,10.0,West,5.8,-,0.21,Rain,Light Rain,270,2013-07-26 20:34:00
3:53 PM,73.9,64.0,71,29.83,10.0,WNW,6.9,-,0.21,,Scattered Clouds,290,2013-07-26 20:53:00
4:53 PM,73.9,61.0,64,29.85,10.0,NW,6.9,19.6,N/A,,Mostly Cloudy,310,2013-07-26 21:53:00
5:53 PM,75.9,55.0,48,29.86,10.0,NW,8.1,-,N/A,,Partly Cloudy,310,2013-07-26 22:53:00
6:53 PM,72.0,55.0,55,29.88,10.0,NW,9.2,-,N/A,,Scattered Clouds,320,2013-07-26 23:53:00
7:53 PM,70.0,55.9,61,29.89,10.0,NW,8.1,-,N/A,,Scattered Clouds,320,2013-07-27 00:53:00
8:53 PM,66.0,54.0,65,29.89,10.0,NW,4.6,-,N/A,,Partly Cloudy,310,2013-07-27 01:53:00
9:53 PM,64.9,54.0,68,29.91,10.0,WNW,5.8,-,N/A,,Partly Cloudy,290,2013-07-27 02:53:00
10:53 PM,63.0,54.0,72,29.91,10.0,NW,6.9,-,N/A,,Clear,320,2013-07-27 03:53:00
11:53 PM,62.1,55.0,78,29.91,10.0,Variable,4.6,-,N/A,,Mostly Cloudy,0,2013-07-27 04:53:00